Year,Month,Day,Hour,Minute,Value (Times are PST for temperature in C)
2009,04,23,00,00,4.90
2009,04,23,00,01,4.90
2009,04,23,00,02,4.90
2009,04,23,00,03,4.90
2009,04,23,00,04,4.90
2009,04,23,00,05,4.80
2009,04,23,00,06,4.80
2009,04,23,00,07,4.80
2009,04,23,00,08,4.80
2009,04,23,00,09,4.70
2009,04,23,00,10,4.70
2009,04,23,00,11,4.70
2009,04,23,00,12,4.70
2009,04,23,00,13,4.60
2009,04,23,00,14,4.60
2009,04,23,00,15,4.60
2009,04,23,00,16,4.60
2009,04,23,00,17,4.60
2009,04,23,00,18,4.60
2009,04,23,00,19,4.60
2009,04,23,00,20,4.60
2009,04,23,00,21,4.50
2009,04,23,00,22,4.50
2009,04,23,00,23,4.50
2009,04,23,00,24,4.40
2009,04,23,00,25,4.40
2009,04,23,00,26,4.40
2009,04,23,00,27,4.40
2009,04,23,00,28,4.40
2009,04,23,00,29,4.30
2009,04,23,00,30,4.30
2009,04,23,00,31,4.30
2009,04,23,00,32,4.20
2009,04,23,00,33,4.20
2009,04,23,00,34,4.20
2009,04,23,00,35,4.20
2009,04,23,00,36,4.20
2009,04,23,00,37,4.20
2009,04,23,00,38,4.20
2009,04,23,00,39,4.20
2009,04,23,00,40,4.20
2009,04,23,00,41,4.20
2009,04,23,00,42,4.10
2009,04,23,00,43,4.10
2009,04,23,00,44,4.10
2009,04,23,00,45,4.10
2009,04,23,00,46,4.10
2009,04,23,00,47,4.00
2009,04,23,00,48,4.00
2009,04,23,00,49,4.00
2009,04,23,00,50,4.00
2009,04,23,00,51,4.00
2009,04,23,00,52,4.00
2009,04,23,00,53,4.00
2009,04,23,00,54,4.00
2009,04,23,00,55,4.00
2009,04,23,00,56,4.00
2009,04,23,00,57,4.10
2009,04,23,00,58,4.10
2009,04,23,00,59,4.10
2009,04,23,01,00,4.10
2009,04,23,01,01,4.10
2009,04,23,01,02,4.10
2009,04,23,01,03,4.10
2009,04,23,01,04,4.10
2009,04,23,01,05,4.10
2009,04,23,01,06,4.10
2009,04,23,01,07,4.10
2009,04,23,01,08,4.10
2009,04,23,01,09,4.10
2009,04,23,01,10,4.10
2009,04,23,01,11,4.10
2009,04,23,01,12,4.10
2009,04,23,01,13,4.10
2009,04,23,01,14,4.10
2009,04,23,01,15,4.10
2009,04,23,01,16,4.10
2009,04,23,01,17,4.10
2009,04,23,01,18,4.10
2009,04,23,01,19,4.10
2009,04,23,01,20,4.10
2009,04,23,01,21,4.10
2009,04,23,01,22,4.10
2009,04,23,01,23,4.10
2009,04,23,01,24,4.10
2009,04,23,01,25,4.10
2009,04,23,01,26,4.10
2009,04,23,01,27,4.10
2009,04,23,01,28,4.10
2009,04,23,01,29,4.10
2009,04,23,01,30,4.10
2009,04,23,01,31,4.20
2009,04,23,01,32,4.20
2009,04,23,01,33,4.20
2009,04,23,01,34,4.20
2009,04,23,01,35,4.20
2009,04,23,01,36,4.20
2009,04,23,01,37,4.20
2009,04,23,01,38,4.20
2009,04,23,01,39,4.20
2009,04,23,01,40,4.20
2009,04,23,01,41,4.20
2009,04,23,01,42,4.20
2009,04,23,01,43,4.20
2009,04,23,01,44,4.20
2009,04,23,01,45,4.20
2009,04,23,01,46,4.20
2009,04,23,01,47,4.20
2009,04,23,01,48,4.20
2009,04,23,01,49,4.30
2009,04,23,01,50,4.30
2009,04,23,01,51,4.30
2009,04,23,01,52,4.30
2009,04,23,01,53,4.30
2009,04,23,01,54,4.30
2009,04,23,01,55,4.30
2009,04,23,01,56,4.30
2009,04,23,01,57,4.30
2009,04,23,01,58,4.30
2009,04,23,01,59,4.30
2009,04,23,02,00,4.30
2009,04,23,02,01,4.40
2009,04,23,02,02,4.40
2009,04,23,02,03,4.40
2009,04,23,02,04,4.40
2009,04,23,02,05,4.40
2009,04,23,02,06,4.40
2009,04,23,02,07,4.40
2009,04,23,02,08,4.40
2009,04,23,02,09,4.40
2009,04,23,02,10,4.50
2009,04,23,02,11,4.50
2009,04,23,02,12,4.50
2009,04,23,02,13,4.50
2009,04,23,02,14,4.50
2009,04,23,02,15,4.40
2009,04,23,02,16,4.40
2009,04,23,02,17,4.40
2009,04,23,02,18,4.50
2009,04,23,02,19,4.50
2009,04,23,02,20,4.50
2009,04,23,02,21,4.50
2009,04,23,02,22,4.40
2009,04,23,02,23,4.40
2009,04,23,02,24,4.40
2009,04,23,02,25,4.40
2009,04,23,02,26,4.40
2009,04,23,02,27,4.40
2009,04,23,02,28,4.40
2009,04,23,02,29,4.40
2009,04,23,02,30,4.30
2009,04,23,02,31,4.30
2009,04,23,02,32,4.30
2009,04,23,02,33,4.30
2009,04,23,02,34,4.30
2009,04,23,02,35,4.20
2009,04,23,02,36,4.20
2009,04,23,02,37,4.20
2009,04,23,02,38,4.20
2009,04,23,02,39,4.20
2009,04,23,02,40,4.20
2009,04,23,02,41,4.20
2009,04,23,02,42,4.20
2009,04,23,02,43,4.10
2009,04,23,02,44,4.10
2009,04,23,02,45,4.10
2009,04,23,02,46,4.00
2009,04,23,02,47,4.00
2009,04,23,02,48,4.00
2009,04,23,02,49,4.00
2009,04,23,02,50,3.90
2009,04,23,02,51,3.90
2009,04,23,02,52,3.80
2009,04,23,02,53,3.80
2009,04,23,02,54,3.80
2009,04,23,02,55,3.80
2009,04,23,02,56,3.80
2009,04,23,02,57,3.80
2009,04,23,02,58,3.80
2009,04,23,02,59,3.80
2009,04,23,03,00,3.70
2009,04,23,03,01,3.70
2009,04,23,03,02,3.70
2009,04,23,03,03,3.80
2009,04,23,03,04,3.80
2009,04,23,03,05,3.80
2009,04,23,03,06,3.80
2009,04,23,03,07,3.90
2009,04,23,03,08,4.00
2009,04,23,03,09,4.10
2009,04,23,03,10,4.20
2009,04,23,03,11,4.30
2009,04,23,03,12,4.40
2009,04,23,03,13,4.50
2009,04,23,03,14,4.60
2009,04,23,03,15,4.70
2009,04,23,03,16,4.80
2009,04,23,03,17,4.90
2009,04,23,03,18,4.90
2009,04,23,03,19,5.00
2009,04,23,03,20,5.10
2009,04,23,03,21,5.10
2009,04,23,03,22,5.10
2009,04,23,03,23,5.20
2009,04,23,03,24,5.20
2009,04,23,03,25,5.30
2009,04,23,03,26,5.30
2009,04,23,03,27,5.40
2009,04,23,03,28,5.40
2009,04,23,03,29,5.50
2009,04,23,03,30,5.50
2009,04,23,03,31,5.60
2009,04,23,03,32,5.60
2009,04,23,03,33,5.60
2009,04,23,03,34,5.70
2009,04,23,03,35,5.70
2009,04,23,03,36,5.70
2009,04,23,03,37,5.70
2009,04,23,03,38,5.70
2009,04,23,03,39,5.70
2009,04,23,03,40,5.70
2009,04,23,03,41,5.70
2009,04,23,03,42,5.70
2009,04,23,03,43,5.70
2009,04,23,03,44,5.70
2009,04,23,03,45,5.70
2009,04,23,03,46,5.70
2009,04,23,03,47,5.70
2009,04,23,03,48,5.70
2009,04,23,03,49,5.70
2009,04,23,03,50,5.70
2009,04,23,03,51,5.70
2009,04,23,03,52,5.70
2009,04,23,03,53,5.70
2009,04,23,03,54,5.70
2009,04,23,03,55,5.70
2009,04,23,03,56,5.60
2009,04,23,03,57,5.60
2009,04,23,03,58,5.60
2009,04,23,03,59,5.60
2009,04,23,04,00,5.60
2009,04,23,04,01,5.60
2009,04,23,04,02,5.50
2009,04,23,04,03,5.50
2009,04,23,04,04,5.50
2009,04,23,04,05,5.50
2009,04,23,04,06,5.50
2009,04,23,04,07,5.50
2009,04,23,04,08,5.40
2009,04,23,04,09,5.40
2009,04,23,04,10,5.40
2009,04,23,04,11,5.30
2009,04,23,04,12,5.30
2009,04,23,04,13,5.30
2009,04,23,04,14,5.20
2009,04,23,04,15,5.20
2009,04,23,04,16,5.10
2009,04,23,04,17,5.10
2009,04,23,04,18,5.10
2009,04,23,04,19,5.00
2009,04,23,04,20,4.90
2009,04,23,04,21,4.90
2009,04,23,04,22,4.80
2009,04,23,04,23,4.70
2009,04,23,04,24,4.60
2009,04,23,04,25,4.60
2009,04,23,04,26,4.50
2009,04,23,04,27,4.40
2009,04,23,04,28,4.40
2009,04,23,04,29,4.30
2009,04,23,04,30,4.30
2009,04,23,04,31,4.20
2009,04,23,04,32,4.20
2009,04,23,04,33,4.00
2009,04,23,04,34,4.00
2009,04,23,04,35,3.90
2009,04,23,04,36,3.90
2009,04,23,04,37,3.80
2009,04,23,04,38,3.80
2009,04,23,04,39,3.70
2009,04,23,04,40,3.70
2009,04,23,04,41,3.60
2009,04,23,04,42,3.60
2009,04,23,04,43,3.50
2009,04,23,04,44,3.50
2009,04,23,04,45,3.50
2009,04,23,04,46,3.50
2009,04,23,04,47,3.50
2009,04,23,04,48,3.40
2009,04,23,04,49,3.40
2009,04,23,04,50,3.40
2009,04,23,04,51,3.40
2009,04,23,04,52,3.30
2009,04,23,04,53,3.30
2009,04,23,04,54,3.30
2009,04,23,04,55,3.30
2009,04,23,04,56,3.30
2009,04,23,04,57,3.30
2009,04,23,04,58,3.30
2009,04,23,04,59,3.30
2009,04,23,05,00,3.20
2009,04,23,05,01,3.20
2009,04,23,05,02,3.20
2009,04,23,05,03,3.10
2009,04,23,05,04,3.10
2009,04,23,05,05,3.10
2009,04,23,05,06,3.10
2009,04,23,05,07,3.10
2009,04,23,05,08,3.10
2009,04,23,05,09,3.00
2009,04,23,05,10,2.90
2009,04,23,05,11,2.90
2009,04,23,05,12,2.90
2009,04,23,05,13,2.90
2009,04,23,05,14,2.90
2009,04,23,05,15,2.90
2009,04,23,05,16,2.90
2009,04,23,05,17,2.90
2009,04,23,05,18,2.90
2009,04,23,05,19,2.90
2009,04,23,05,20,2.90
2009,04,23,05,21,2.80
2009,04,23,05,22,2.80
2009,04,23,05,23,2.70
2009,04,23,05,24,2.60
2009,04,23,05,25,2.50
2009,04,23,05,26,2.40
2009,04,23,05,27,2.30
2009,04,23,05,28,2.20
2009,04,23,05,29,2.10
2009,04,23,05,30,2.10
2009,04,23,05,31,2.00
2009,04,23,05,32,1.90
2009,04,23,05,33,1.90
2009,04,23,05,34,1.80
2009,04,23,05,35,1.80
2009,04,23,05,36,1.80
2009,04,23,05,37,1.70
2009,04,23,05,38,1.70
2009,04,23,05,39,1.70
2009,04,23,05,40,1.60
2009,04,23,05,41,1.60
2009,04,23,05,42,1.60
2009,04,23,05,43,1.60
2009,04,23,05,44,1.70
2009,04,23,05,45,1.70
2009,04,23,05,46,1.70
2009,04,23,05,47,1.70
2009,04,23,05,48,1.70
2009,04,23,05,49,1.70
2009,04,23,05,50,1.70
2009,04,23,05,51,1.70
2009,04,23,05,52,1.70
2009,04,23,05,53,1.70
2009,04,23,05,54,1.70
2009,04,23,05,55,1.80
2009,04,23,05,56,1.80
2009,04,23,05,57,1.80
2009,04,23,05,58,1.80
2009,04,23,05,59,1.80
2009,04,23,06,00,1.80
2009,04,23,06,01,1.80
2009,04,23,06,02,1.80
2009,04,23,06,03,1.80
2009,04,23,06,04,1.80
2009,04,23,06,05,1.80
2009,04,23,06,06,1.80
2009,04,23,06,07,1.80
2009,04,23,06,08,1.80
2009,04,23,06,09,1.70
2009,04,23,06,10,1.70
2009,04,23,06,11,1.70
2009,04,23,06,12,1.60
2009,04,23,06,13,1.60
2009,04,23,06,14,1.60
2009,04,23,06,15,1.60
2009,04,23,06,16,1.60
2009,04,23,06,17,1.50
2009,04,23,06,18,1.50
2009,04,23,06,19,1.50
2009,04,23,06,20,1.50
2009,04,23,06,21,1.50
2009,04,23,06,22,1.50
2009,04,23,06,23,1.50
2009,04,23,06,24,1.60
2009,04,23,06,25,1.50
2009,04,23,06,26,1.50
2009,04,23,06,27,1.50
2009,04,23,06,28,1.50
2009,04,23,06,29,1.50
2009,04,23,06,30,1.50
2009,04,23,06,31,1.40
2009,04,23,06,32,1.40
2009,04,23,06,33,1.40
2009,04,23,06,34,1.30
2009,04,23,06,35,1.30
2009,04,23,06,36,1.30
2009,04,23,06,37,1.20
2009,04,23,06,38,1.20
2009,04,23,06,39,1.10
2009,04,23,06,40,1.10
2009,04,23,06,41,1.10
2009,04,23,06,42,1.10
2009,04,23,06,43,1.10
2009,04,23,06,44,1.10
2009,04,23,06,45,1.10
2009,04,23,06,46,1.20
2009,04,23,06,47,1.20
2009,04,23,06,48,1.20
2009,04,23,06,49,1.20
2009,04,23,06,50,1.20
2009,04,23,06,51,1.20
2009,04,23,06,52,1.20
2009,04,23,06,53,1.20
2009,04,23,06,54,1.30
2009,04,23,06,55,1.30
2009,04,23,06,56,1.30
2009,04,23,06,57,1.30
2009,04,23,06,58,1.30
2009,04,23,06,59,1.30
2009,04,23,07,00,1.30
2009,04,23,07,01,1.30
2009,04,23,07,02,1.30
2009,04,23,07,03,1.40
2009,04,23,07,04,1.40
2009,04,23,07,05,1.40
2009,04,23,07,06,1.40
2009,04,23,07,07,1.40
2009,04,23,07,08,1.40
2009,04,23,07,09,1.50
2009,04,23,07,10,1.50
2009,04,23,07,11,1.50
2009,04,23,07,12,1.60
2009,04,23,07,13,1.60
2009,04,23,07,14,1.60
2009,04,23,07,15,1.70
2009,04,23,07,16,1.70
2009,04,23,07,17,1.80
2009,04,23,07,18,1.80
2009,04,23,07,19,1.80
2009,04,23,07,20,1.90
2009,04,23,07,21,1.90
2009,04,23,07,22,2.00
2009,04,23,07,23,2.10
2009,04,23,07,24,2.10
2009,04,23,07,25,2.20
2009,04,23,07,26,2.20
2009,04,23,07,27,2.30
2009,04,23,07,28,2.40
2009,04,23,07,29,2.50
2009,04,23,07,30,2.50
2009,04,23,07,31,2.60
2009,04,23,07,32,2.70
2009,04,23,07,33,2.80
2009,04,23,07,34,2.90
2009,04,23,07,35,2.90
2009,04,23,07,36,3.00
2009,04,23,07,37,3.10
2009,04,23,07,38,3.20
2009,04,23,07,39,3.30
2009,04,23,07,40,3.40
2009,04,23,07,41,3.50
2009,04,23,07,42,3.60
2009,04,23,07,43,3.70
2009,04,23,07,44,3.80
2009,04,23,07,45,4.00
2009,04,23,07,46,4.00
2009,04,23,07,47,4.20
2009,04,23,07,48,4.30
2009,04,23,07,49,4.40
2009,04,23,07,50,4.60
2009,04,23,07,51,4.70
2009,04,23,07,52,4.80
2009,04,23,07,53,4.90
2009,04,23,07,54,5.10
2009,04,23,07,55,5.20
2009,04,23,07,56,5.30
2009,04,23,07,57,5.50
2009,04,23,07,58,5.60
2009,04,23,07,59,5.80
2009,04,23,08,00,5.90
2009,04,23,08,01,6.00
2009,04,23,08,02,6.10
2009,04,23,08,03,6.30
2009,04,23,08,04,6.40
2009,04,23,08,05,6.60
2009,04,23,08,06,6.60
2009,04,23,08,07,6.70
2009,04,23,08,08,6.70
2009,04,23,08,09,6.70
2009,04,23,08,10,6.80
2009,04,23,08,11,6.80
2009,04,23,08,12,6.90
2009,04,23,08,13,6.90
2009,04,23,08,14,6.90
2009,04,23,08,15,6.90
2009,04,23,08,16,7.00
2009,04,23,08,17,7.00
2009,04,23,08,18,7.10
2009,04,23,08,19,7.20
2009,04,23,08,20,7.30
2009,04,23,08,21,7.40
2009,04,23,08,22,7.40
2009,04,23,08,23,7.50
2009,04,23,08,24,7.50
2009,04,23,08,25,7.50
2009,04,23,08,26,7.50
2009,04,23,08,27,7.50
2009,04,23,08,28,7.50
2009,04,23,08,29,7.50
2009,04,23,08,30,7.50
2009,04,23,08,31,7.60
2009,04,23,08,32,7.60
2009,04,23,08,33,7.60
2009,04,23,08,34,7.60
2009,04,23,08,35,7.60
2009,04,23,08,36,7.60
2009,04,23,08,37,7.70
2009,04,23,08,38,7.80
2009,04,23,08,39,7.80
2009,04,23,08,40,7.80
2009,04,23,08,41,7.70
2009,04,23,08,42,7.70
2009,04,23,08,43,7.70
2009,04,23,08,44,7.70
2009,04,23,08,45,7.70
2009,04,23,08,46,7.70
2009,04,23,08,47,7.70
2009,04,23,08,48,7.80
2009,04,23,08,49,7.80
2009,04,23,08,50,7.80
2009,04,23,08,51,7.90
2009,04,23,08,52,7.80
2009,04,23,08,53,7.90
2009,04,23,08,54,7.80
2009,04,23,08,55,7.80
2009,04,23,08,56,7.80
2009,04,23,08,57,7.80
2009,04,23,08,58,7.70
2009,04,23,08,59,7.60
2009,04,23,09,00,7.60
2009,04,23,09,01,7.50
2009,04,23,09,02,7.50
2009,04,23,09,03,7.50
2009,04,23,09,04,7.50
2009,04,23,09,05,7.60
2009,04,23,09,06,7.60
2009,04,23,09,07,7.60
2009,04,23,09,08,7.60
2009,04,23,09,09,7.60
2009,04,23,09,10,7.60
2009,04,23,09,11,7.60
2009,04,23,09,12,7.70
2009,04,23,09,13,7.70
2009,04,23,09,14,7.70
2009,04,23,09,15,7.70
2009,04,23,09,16,7.70
2009,04,23,09,17,7.80
2009,04,23,09,18,7.80
2009,04,23,09,19,7.80
2009,04,23,09,20,7.80
2009,04,23,09,21,7.80
2009,04,23,09,22,7.80
2009,04,23,09,23,7.80
2009,04,23,09,24,7.80
2009,04,23,09,25,7.70
2009,04,23,09,26,7.70
2009,04,23,09,27,7.70
2009,04,23,09,28,7.70
2009,04,23,09,29,7.60
2009,04,23,09,30,7.60
2009,04,23,09,31,7.60
2009,04,23,09,32,7.60
2009,04,23,09,33,7.70
2009,04,23,09,34,7.80
2009,04,23,09,35,7.70
2009,04,23,09,36,7.70
2009,04,23,09,37,7.70
2009,04,23,09,38,7.70
2009,04,23,09,39,7.80
2009,04,23,09,40,7.80
2009,04,23,09,41,7.80
2009,04,23,09,42,7.80
2009,04,23,09,43,7.80
2009,04,23,09,44,7.80
2009,04,23,09,45,7.80
2009,04,23,09,46,7.90
2009,04,23,09,47,8.00
2009,04,23,09,48,8.00
2009,04,23,09,49,8.10
2009,04,23,09,50,8.20
2009,04,23,09,51,8.20
2009,04,23,09,52,8.30
2009,04,23,09,53,8.40
2009,04,23,09,54,8.50
2009,04,23,09,55,8.60
2009,04,23,09,56,8.70
2009,04,23,09,57,8.70
2009,04,23,09,58,8.70
2009,04,23,09,59,8.60
2009,04,23,10,00,8.50
2009,04,23,10,01,8.40
2009,04,23,10,02,8.30
2009,04,23,10,03,8.20
2009,04,23,10,04,8.10
2009,04,23,10,05,8.10
2009,04,23,10,06,8.00
2009,04,23,10,07,8.00
2009,04,23,10,08,8.00
2009,04,23,10,09,8.00
2009,04,23,10,10,8.00
2009,04,23,10,11,8.10
2009,04,23,10,12,8.20
2009,04,23,10,13,8.20
2009,04,23,10,14,8.30
2009,04,23,10,15,8.30
2009,04,23,10,16,8.30
2009,04,23,10,17,8.20
2009,04,23,10,18,8.10
2009,04,23,10,19,8.00
2009,04,23,10,20,7.90
2009,04,23,10,21,7.90
2009,04,23,10,22,7.80
2009,04,23,10,23,7.80
2009,04,23,10,24,7.90
2009,04,23,10,25,7.90
2009,04,23,10,26,8.00
2009,04,23,10,27,8.10
2009,04,23,10,28,8.20
2009,04,23,10,29,8.30
2009,04,23,10,30,8.40
2009,04,23,10,31,8.40
2009,04,23,10,32,8.40
2009,04,23,10,33,8.40
2009,04,23,10,34,8.30
2009,04,23,10,35,8.20
2009,04,23,10,36,8.20
2009,04,23,10,37,8.20
2009,04,23,10,38,8.20
2009,04,23,10,39,8.20
2009,04,23,10,40,8.20
2009,04,23,10,41,8.20
2009,04,23,10,42,8.30
2009,04,23,10,43,8.30
2009,04,23,10,44,8.40
2009,04,23,10,45,8.40
2009,04,23,10,46,8.50
2009,04,23,10,47,8.50
2009,04,23,10,48,8.60
2009,04,23,10,49,8.60
2009,04,23,10,50,8.60
2009,04,23,10,51,8.70
2009,04,23,10,52,8.60
2009,04,23,10,53,8.60
2009,04,23,10,54,8.60
2009,04,23,10,55,8.60
2009,04,23,10,56,8.70
2009,04,23,10,57,8.70
2009,04,23,10,58,8.70
2009,04,23,10,59,8.70
2009,04,23,11,00,8.70
2009,04,23,11,01,8.70
2009,04,23,11,02,8.70
2009,04,23,11,03,8.60
2009,04,23,11,04,8.60
2009,04,23,11,05,8.70
2009,04,23,11,06,8.70
2009,04,23,11,07,8.80
2009,04,23,11,08,8.90
2009,04,23,11,09,9.00
2009,04,23,11,10,9.20
2009,04,23,11,11,9.20
2009,04,23,11,12,9.10
2009,04,23,11,13,9.10
2009,04,23,11,14,9.00
2009,04,23,11,15,8.80
2009,04,23,11,16,8.70
2009,04,23,11,17,8.70
2009,04,23,11,18,8.60
2009,04,23,11,19,8.60
2009,04,23,11,20,8.60
2009,04,23,11,21,8.50
2009,04,23,11,22,8.50
2009,04,23,11,23,8.50
2009,04,23,11,24,8.60
2009,04,23,11,25,8.70
2009,04,23,11,26,8.70
2009,04,23,11,27,8.70
2009,04,23,11,28,8.70
2009,04,23,11,29,8.70
2009,04,23,11,30,8.60
2009,04,23,11,31,8.60
2009,04,23,11,32,8.60
2009,04,23,11,33,8.60
2009,04,23,11,34,8.50
2009,04,23,11,35,8.50
2009,04,23,11,36,8.50
2009,04,23,11,37,8.50
2009,04,23,11,38,8.50
2009,04,23,11,39,8.50
2009,04,23,11,40,8.50
2009,04,23,11,41,8.60
2009,04,23,11,42,8.60
2009,04,23,11,43,8.60
2009,04,23,11,44,8.70
2009,04,23,11,45,8.70
2009,04,23,11,46,8.80
2009,04,23,11,47,8.80
2009,04,23,11,48,8.90
2009,04,23,11,49,8.80
2009,04,23,11,50,8.90
2009,04,23,11,51,8.90
2009,04,23,11,52,9.00
2009,04,23,11,53,9.10
2009,04,23,11,54,9.20
2009,04,23,11,55,9.20
2009,04,23,11,56,9.20
2009,04,23,11,57,9.20
2009,04,23,11,58,9.30
2009,04,23,11,59,9.30
2009,04,23,12,00,9.40
2009,04,23,12,01,9.40
2009,04,23,12,02,9.50
2009,04,23,12,03,9.60
2009,04,23,12,04,9.70
2009,04,23,12,05,9.70
2009,04,23,12,06,9.70
2009,04,23,12,07,9.70
2009,04,23,12,08,9.60
2009,04,23,12,09,9.50
2009,04,23,12,10,9.60
2009,04,23,12,11,9.60
2009,04,23,12,12,9.50
2009,04,23,12,13,9.40
2009,04,23,12,14,9.30
2009,04,23,12,15,9.30
2009,04,23,12,16,9.30
2009,04,23,12,17,9.40
2009,04,23,12,18,9.50
2009,04,23,12,19,9.60
2009,04,23,12,20,9.70
2009,04,23,12,21,9.70
2009,04,23,12,22,9.60
2009,04,23,12,23,9.60
2009,04,23,12,24,9.60
2009,04,23,12,25,9.60
2009,04,23,12,26,9.60
2009,04,23,12,27,9.60
2009,04,23,12,28,9.70
2009,04,23,12,29,9.70
2009,04,23,12,30,9.80
2009,04,23,12,31,9.90
2009,04,23,12,32,9.90
2009,04,23,12,33,9.90
2009,04,23,12,34,9.70
2009,04,23,12,35,9.70
2009,04,23,12,36,9.70
2009,04,23,12,37,9.70
2009,04,23,12,38,9.70
2009,04,23,12,39,9.60
2009,04,23,12,40,9.50
2009,04,23,12,41,9.50
2009,04,23,12,42,9.40
2009,04,23,12,43,9.30
2009,04,23,12,44,9.40
2009,04,23,12,45,9.50
2009,04,23,12,46,9.50
2009,04,23,12,47,9.60
2009,04,23,12,48,9.60
2009,04,23,12,49,9.60
2009,04,23,12,50,9.70
2009,04,23,12,51,9.70
2009,04,23,12,52,9.70
2009,04,23,12,53,9.80
2009,04,23,12,54,9.90
2009,04,23,12,55,10.00
2009,04,23,12,56,10.10
2009,04,23,12,57,10.20
2009,04,23,12,58,10.30
2009,04,23,12,59,10.30
2009,04,23,13,00,10.30
2009,04,23,13,01,10.30
2009,04,23,13,02,10.40
2009,04,23,13,03,10.40
2009,04,23,13,04,10.40
2009,04,23,13,05,10.40
2009,04,23,13,06,10.40
2009,04,23,13,07,10.40
2009,04,23,13,08,10.30
2009,04,23,13,09,10.30
2009,04,23,13,10,10.30
2009,04,23,13,11,10.40
2009,04,23,13,12,10.40
2009,04,23,13,13,10.40
2009,04,23,13,14,10.50
2009,04,23,13,15,10.40
2009,04,23,13,16,10.30
2009,04,23,13,17,10.30
2009,04,23,13,18,10.20
2009,04,23,13,19,10.20
2009,04,23,13,20,10.00
2009,04,23,13,21,9.90
2009,04,23,13,22,9.80
2009,04,23,13,23,9.70
2009,04,23,13,24,9.70
2009,04,23,13,25,9.70
2009,04,23,13,26,9.70
2009,04,23,13,27,9.70
2009,04,23,13,28,9.80
2009,04,23,13,29,9.90
2009,04,23,13,30,10.00
2009,04,23,13,31,10.00
2009,04,23,13,32,9.90
2009,04,23,13,33,9.90
2009,04,23,13,34,9.90
2009,04,23,13,35,9.90
2009,04,23,13,36,9.90
2009,04,23,13,37,10.00
2009,04,23,13,38,10.10
2009,04,23,13,39,10.10
2009,04,23,13,40,10.10
2009,04,23,13,41,10.20
2009,04,23,13,42,10.30
2009,04,23,13,43,10.30
2009,04,23,13,44,10.30
2009,04,23,13,45,10.40
2009,04,23,13,46,10.40
2009,04,23,13,47,10.50
2009,04,23,13,48,10.60
2009,04,23,13,49,10.70
2009,04,23,13,50,10.80
2009,04,23,13,51,10.90
2009,04,23,13,52,10.90
2009,04,23,13,53,11.10
2009,04,23,13,54,11.10
2009,04,23,13,55,10.90
2009,04,23,13,56,10.90
2009,04,23,13,57,10.90
2009,04,23,13,58,10.90
2009,04,23,13,59,11.00
2009,04,23,14,00,11.10
2009,04,23,14,01,11.20
2009,04,23,14,02,11.10
2009,04,23,14,03,11.10
2009,04,23,14,04,11.10
2009,04,23,14,05,11.10
2009,04,23,14,06,11.10
2009,04,23,14,07,11.10
2009,04,23,14,08,11.10
2009,04,23,14,09,11.10
2009,04,23,14,10,11.00
2009,04,23,14,11,10.90
2009,04,23,14,12,10.90
2009,04,23,14,13,10.90
2009,04,23,14,14,10.90
2009,04,23,14,15,10.90
2009,04,23,14,16,10.90
2009,04,23,14,17,11.00
2009,04,23,14,18,11.10
2009,04,23,14,19,11.20
2009,04,23,14,20,11.40
2009,04,23,14,21,11.40
2009,04,23,14,22,11.30
2009,04,23,14,23,11.30
2009,04,23,14,24,11.30
2009,04,23,14,25,11.30
2009,04,23,14,26,11.30
2009,04,23,14,27,11.30
2009,04,23,14,28,11.30
2009,04,23,14,29,11.20
2009,04,23,14,30,11.10
2009,04,23,14,31,11.10
2009,04,23,14,32,11.10
2009,04,23,14,33,11.10
2009,04,23,14,34,11.20
2009,04,23,14,35,11.20
2009,04,23,14,36,11.30
2009,04,23,14,37,11.20
2009,04,23,14,38,11.10
2009,04,23,14,39,11.10
2009,04,23,14,40,11.10
2009,04,23,14,41,11.20
2009,04,23,14,42,11.30
2009,04,23,14,43,11.40
2009,04,23,14,44,11.40
2009,04,23,14,45,11.40
2009,04,23,14,46,11.60
2009,04,23,14,47,11.60
2009,04,23,14,48,11.60
2009,04,23,14,49,11.70
2009,04,23,14,50,11.80
2009,04,23,14,51,11.90
2009,04,23,14,52,12.00
2009,04,23,14,53,12.10
2009,04,23,14,54,12.20
2009,04,23,14,55,12.20
2009,04,23,14,56,12.10
2009,04,23,14,57,12.10
2009,04,23,14,58,11.90
2009,04,23,14,59,11.70
2009,04,23,15,00,11.70
2009,04,23,15,01,11.60
2009,04,23,15,02,11.60
2009,04,23,15,03,11.60
2009,04,23,15,04,11.80
2009,04,23,15,05,11.90
2009,04,23,15,06,12.00
2009,04,23,15,07,12.20
2009,04,23,15,08,12.30
2009,04,23,15,09,12.40
2009,04,23,15,10,12.50
2009,04,23,15,11,12.50
2009,04,23,15,12,12.50
2009,04,23,15,13,12.50
2009,04,23,15,14,12.50
2009,04,23,15,15,12.50
2009,04,23,15,16,12.50
2009,04,23,15,17,12.50
2009,04,23,15,18,12.50
2009,04,23,15,19,12.60
2009,04,23,15,20,12.60
2009,04,23,15,21,12.60
2009,04,23,15,22,12.60
2009,04,23,15,23,12.60
2009,04,23,15,24,12.60
2009,04,23,15,25,12.60
2009,04,23,15,26,12.60
2009,04,23,15,27,12.70
2009,04,23,15,28,12.70
2009,04,23,15,29,12.60
2009,04,23,15,30,12.50
2009,04,23,15,31,12.50
2009,04,23,15,32,12.50
2009,04,23,15,33,12.50
2009,04,23,15,34,12.50
2009,04,23,15,35,12.50
2009,04,23,15,36,12.40
2009,04,23,15,37,12.40
2009,04,23,15,38,12.30
2009,04,23,15,39,12.40
2009,04,23,15,40,12.40
2009,04,23,15,41,12.40
2009,04,23,15,42,12.50
2009,04,23,15,43,12.60
2009,04,23,15,44,12.70
2009,04,23,15,45,12.70
2009,04,23,15,46,12.80
2009,04,23,15,47,12.80
2009,04,23,15,48,12.70
2009,04,23,15,49,12.70
2009,04,23,15,50,12.80
2009,04,23,15,51,12.60
2009,04,23,15,52,12.50
2009,04,23,15,53,12.40
2009,04,23,15,54,12.20
2009,04,23,15,55,12.10
2009,04,23,15,56,12.00
2009,04,23,15,57,11.90
2009,04,23,15,58,11.90
2009,04,23,15,59,11.80
2009,04,23,16,00,11.80
2009,04,23,16,01,11.90
2009,04,23,16,02,11.90
2009,04,23,16,03,11.90
2009,04,23,16,04,11.80
2009,04,23,16,05,11.80
2009,04,23,16,06,11.80
2009,04,23,16,07,11.70
2009,04,23,16,08,11.60
2009,04,23,16,09,11.60
2009,04,23,16,10,11.60
2009,04,23,16,11,11.60
2009,04,23,16,12,11.60
2009,04,23,16,13,11.50
2009,04,23,16,14,11.60
2009,04,23,16,15,11.60
2009,04,23,16,16,11.60
2009,04,23,16,17,11.60
2009,04,23,16,18,11.70
2009,04,23,16,19,11.70
2009,04,23,16,20,11.80
2009,04,23,16,21,11.70
2009,04,23,16,22,11.70
2009,04,23,16,23,11.60
2009,04,23,16,24,11.60
2009,04,23,16,25,11.70
2009,04,23,16,26,11.80
2009,04,23,16,27,12.00
2009,04,23,16,28,12.10
2009,04,23,16,29,12.30
2009,04,23,16,30,12.40
2009,04,23,16,31,12.60
2009,04,23,16,32,12.70
2009,04,23,16,33,12.80
2009,04,23,16,34,12.80
2009,04,23,16,35,12.80
2009,04,23,16,36,12.80
2009,04,23,16,37,12.90
2009,04,23,16,38,13.00
2009,04,23,16,39,13.00
2009,04,23,16,40,13.10
2009,04,23,16,41,13.10
2009,04,23,16,42,13.10
2009,04,23,16,43,12.90
2009,04,23,16,44,12.80
2009,04,23,16,45,12.60
2009,04,23,16,46,12.60
2009,04,23,16,47,12.50
2009,04,23,16,48,12.50
2009,04,23,16,49,12.30
2009,04,23,16,50,12.30
2009,04,23,16,51,12.30
2009,04,23,16,52,12.30
2009,04,23,16,53,12.20
2009,04,23,16,54,12.20
2009,04,23,16,55,12.10
2009,04,23,16,56,12.10
2009,04,23,16,57,12.10
2009,04,23,16,58,12.10
2009,04,23,16,59,12.00
2009,04,23,17,00,12.00
2009,04,23,17,01,12.00
2009,04,23,17,02,12.00
2009,04,23,17,03,12.00
2009,04,23,17,04,12.10
2009,04,23,17,05,12.00
2009,04,23,17,06,12.10
2009,04,23,17,07,12.20
2009,04,23,17,08,12.30
2009,04,23,17,09,12.30
2009,04,23,17,10,12.30
2009,04,23,17,11,12.40
2009,04,23,17,12,12.40
2009,04,23,17,13,12.40
2009,04,23,17,14,12.30
2009,04,23,17,15,12.30
2009,04,23,17,16,12.20
2009,04,23,17,17,12.20
2009,04,23,17,18,12.20
2009,04,23,17,19,12.10
2009,04,23,17,20,12.00
2009,04,23,17,21,11.90
2009,04,23,17,22,11.90
2009,04,23,17,23,11.80
2009,04,23,17,24,11.80
2009,04,23,17,25,11.80
2009,04,23,17,26,11.80
2009,04,23,17,27,11.80
2009,04,23,17,28,11.70
2009,04,23,17,29,11.70
2009,04,23,17,30,11.70
2009,04,23,17,31,11.70
2009,04,23,17,32,11.80
2009,04,23,17,33,11.90
2009,04,23,17,34,12.00
2009,04,23,17,35,12.10
2009,04,23,17,36,12.20
2009,04,23,17,37,12.30
2009,04,23,17,38,12.20
2009,04,23,17,39,12.10
2009,04,23,17,40,12.00
2009,04,23,17,41,11.90
2009,04,23,17,42,11.80
2009,04,23,17,43,11.90
2009,04,23,17,44,11.90
2009,04,23,17,45,11.90
2009,04,23,17,46,11.90
2009,04,23,17,47,11.90
2009,04,23,17,48,11.80
2009,04,23,17,49,11.80
2009,04,23,17,50,11.80
2009,04,23,17,51,11.80
2009,04,23,17,52,11.80
2009,04,23,17,53,11.80